Location: El Abasto
(10.3790°N, 67.5897°W)
Time: 19:19:47
(UTC+00:00)

Cosmos 1812 - Pass Details

Date: 19 May 2024
Orbit: 469 x 471 km, 82.5° (Epoch: 12 June)

Event Time Altitude Azimuth Distance (km) Brightness Sun altitude
Rises 23:03:57 0° 160° (SSE) 2,508 5.8 -5.0°
Reaches altitude 10° 23:06:22 10° 144° (SE) 1,632 4.7 -5.5°
Maximum altitude 23:09:09 22° 92° (E) 1,088 3.8 -6.2°
Drops below altitude 10° 23:11:57 10° 41° (NE) 1,634 5.1 -6.8°
Sets 23:14:21 0° 25° (NNE) 2,511 6.2 -7.4°
